Precipitable_Water
0.55 0.55 0.54 0.57 0.59 0.62 0.62 0.60 0.58 0.59 0.63 0.65 0.65 0.66 0.64 0.65 0.65 0.64 0.64 0.64 0.65 0.66 0.66 0.66 0.65 0.65 0.64 0.66 0.65 0.64 0.63 0.63 0.66 0.61 0.58 0.64 0.66 0.66 0.67 0.68 0.69 0.70 0.74
0.51 0.51 0.51 0.52 0.52 0.51 0.51 0.50 0.50 0.55 0.58 0.61 0.63 0.65 0.64 0.63 0.63 0.63 0.62 0.63 0.63 0.64 0.63 0.63 0.64 0.65 0.65 0.65 0.65 0.64 0.62 0.63 0.65 0.56 0.58 0.51 0.58 0.64 0.67 0.69 0.68 0.68 0.72
0.47 0.46 0.45 0.43 0.44 0.45 0.45 0.47 0.49 0.52 0.55 0.57 0.60 0.60 0.61 0.59 0.58 0.58 0.58 0.58 0.60 0.61 0.61 0.61 0.63 0.64 0.66 0.66 0.67 0.69 0.67 0.63 0.67 0.68 0.61 0.52 0.50 0.56 0.70 0.69 0.71 0.69 0.67
0.42 0.42 0.39 0.39 0.40 0.41 0.41 0.44 0.48 0.51 0.53 0.55 0.55 0.55 0.54 0.54 0.54 0.55 0.55 0.56 0.57 0.59 0.60 0.61 0.62 0.63 0.65 0.65 0.66 0.67 0.68 0.68 0.63 0.68 0.69 0.70 0.66 0.56 0.52 0.67 0.68 0.68 0.66
0.39 0.38 0.36 0.34 0.36 0.37 0.39 0.42 0.45 0.48 0.52 0.53 0.53 0.53 0.53 0.53 0.54 0.54 0.54 0.54 0.54 0.54 0.55 0.55 0.55 0.56 0.58 0.60 0.61 0.62 0.62 0.64 0.62 0.62 0.63 0.64 0.66 0.65 0.58 0.53 0.60 0.65 0.68
0.34 0.35 0.35 0.33 0.33 0.36 0.38 0.40 0.41 0.43 0.46 0.48 0.49 0.49 0.49 0.50 0.50 0.50 0.49 0.49 0.49 0.48 0.48 0.47 0.44 0.43 0.45 0.47 0.48 0.50 0.50 0.51 0.51 0.53 0.55 0.54 0.52 0.52 0.52 0.50 0.52 0.54 0.62
0.33 0.33 0.34 0.32 0.32 0.34 0.36 0.39 0.40 0.40 0.41 0.42 0.44 0.45 0.45 0.45 0.44 0.44 0.43 0.42 0.39 0.37 0.35 0.33 0.31 0.30 0.29 0.30 0.31 0.32 0.35 0.37 0.38 0.39 0.41 0.43 0.43 0.44 0.44 0.43 0.40 0.40 0.44
0.33 0.33 0.33 0.34 0.34 0.33 0.33 0.34 0.36 0.37 0.38 0.38 0.38 0.38 0.38 0.36 0.33 0.31 0.30 0.29 0.28 0.27 0.27 0.27 0.26 0.26 0.26 0.26 0.27 0.27 0.27 0.27 0.27 0.26 0.26 0.27 0.28 0.29 0.30 0.31 0.30 0.28 0.31
0.32 0.34 0.35 0.36 0.36 0.34 0.33 0.32 0.32 0.31 0.31 0.30 0.29 0.28 0.28 0.28 0.27 0.27 0.27 0.27 0.26 0.26 0.25 0.25 0.24 0.24 0.23 0.23 0.24 0.24 0.23 0.23 0.23 0.22 0.21 0.19 0.19 0.19 0.19 0.19 0.19 0.19 0.18
0.35 0.35 0.36 0.36 0.36 0.34 0.32 0.31 0.30 0.29 0.28 0.28 0.28 0.28 0.28 0.28 0.28 0.27 0.26 0.26 0.26 0.25 0.24 0.23 0.23 0.22 0.22 0.21 0.21 0.20 0.20 0.19 0.18 0.18 0.18 0.17 0.16 0.16 0.17 0.16 0.16 0.17 0.16
0.36 0.36 0.36 0.36 0.35 0.34 0.34 0.33 0.32 0.31 0.30 0.30 0.30 0.30 0.29 0.29 0.28 0.28 0.27 0.26 0.26 0.25 0.24 0.23 0.22 0.20 0.19 0.18 0.18 0.18 0.17 0.17 0.16 0.17 0.16 0.16 0.15 0.15 0.15 0.16 0.16 0.16 0.17
0.36 0.36 0.35 0.35 0.34 0.34 0.33 0.32 0.33 0.32 0.32 0.31 0.31 0.30 0.30 0.30 0.29 0.28 0.28 0.27 0.26 0.24 0.22 0.20 0.19 0.17 0.16 0.16 0.16 0.16 0.16 0.16 0.15 0.15 0.15 0.14 0.14 0.14 0.14 0.14 0.14 0.15 0.16
0.36 0.35 0.35 0.34 0.34 0.34 0.34 0.34 0.34 0.33 0.33 0.33 0.32 0.31 0.30 0.30 0.29 0.28 0.27 0.25 0.23 0.21 0.20 0.19 0.17 0.16 0.15 0.15 0.16 0.16 0.16 0.16 0.16 0.15 0.15 0.14 0.13 0.13 0.13 0.14 0.14 0.15 0.16
0.39 0.37 0.36 0.36 0.35 0.35 0.34 0.33 0.33 0.33 0.32 0.32 0.31 0.31 0.30 0.28 0.27 0.26 0.24 0.22 0.22 0.20 0.17 0.16 0.15 0.14 0.13 0.13 0.14 0.16 0.17 0.17 0.16 0.16 0.15 0.14 0.13 0.13 0.13 0.14 0.15 0.15 0.14
0.39 0.38 0.36 0.36 0.35 0.35 0.34 0.34 0.33 0.33 0.32 0.32 0.31 0.30 0.29 0.27 0.25 0.23 0.21 0.19 0.16 0.14 0.13 0.13 0.12 0.12 0.12 0.13 0.14 0.16 0.17 0.16 0.15 0.15 0.14 0.13 0.12 0.13 0.13 0.14 0.14 0.14 0.14
0.38 0.37 0.37 0.36 0.36 0.35 0.34 0.34 0.34 0.33 0.31 0.29 0.26 0.25 0.23 0.21 0.19 0.15 0.13 0.13 0.13 0.13 0.12 0.12 0.12 0.11 0.12 0.12 0.13 0.15 0.16 0.16 0.15 0.13 0.13 0.13 0.12 0.12 0.13 0.13 0.14 0.15 0.14
0.36 0.36 0.35 0.36 0.36 0.36 0.35 0.32 0.30 0.28 0.25 0.23 0.21 0.19 0.16 0.14 0.14 0.13 0.13 0.12 0.12 0.12 0.11 0.11 0.11 0.11 0.11 0.12 0.13 0.15 0.15 0.14 0.14 0.13 0.12 0.11 0.11 0.11 0.10 0.11 0.12 0.14 0.14
0.38 0.38 0.37 0.34 0.33 0.32 0.30 0.28 0.25 0.23 0.19 0.17 0.15 0.14 0.14 0.13 0.12 0.11 0.11 0.11 0.11 0.11 0.11 0.11 0.11 0.11 0.11 0.12 0.12 0.13 0.14 0.13 0.12 0.12 0.11 0.11 0.10 0.10 0.10 0.11 0.12 0.14 0.15
0.38 0.36 0.35 0.33 0.31 0.28 0.24 0.21 0.19 0.17 0.15 0.13 0.11 0.11 0.11 0.10 0.10 0.10 0.11 0.11 0.11 0.11 0.11 0.11 0.10 0.10 0.10 0.11 0.11 0.12 0.12 0.11 0.10 0.11 0.11 0.11 0.11 0.11 0.12 0.13 0.13 0.13 0.13
0.36 0.33 0.31 0.28 0.24 0.21 0.19 0.16 0.13 0.11 0.10 0.10 0.10 0.10 0.10 0.10 0.10 0.10 0.10 0.11 0.10 0.10 0.09 0.09 0.09 0.09 0.09 0.10 0.10 0.11 0.11 0.10 0.10 0.10 0.10 0.11 0.11 0.12 0.13 0.15 0.13 0.12 0.13
0.30 0.29 0.24 0.20 0.16 0.14 0.12 0.10 0.10 0.09 0.10 0.10 0.10 0.10 0.10 0.10 0.10 0.10 0.10 0.09 0.09 0.08 0.08 0.08 0.08 0.08 0.08 0.08 0.09 0.11 0.11 0.10 0.10 0.10 0.10 0.10 0.11 0.13 0.14 0.13 0.14 0.14 0.15
0.21 0.16 0.12 0.10 0.10 0.10 0.09 0.09 0.09 0.10 0.10 0.10 0.10 0.10 0.10 0.10 0.10 0.09 0.09 0.09 0.09 0.08 0.08 0.08 0.08 0.08 0.08 0.08 0.09 0.10 0.12 0.12 0.11 0.11 0.11 0.12 0.13 0.13 0.13 0.13 0.14 0.18 0.18
0.10 0.10 0.09 0.09 0.09 0.10 0.10 0.10 0.11 0.12 0.12 0.11 0.10 0.10 0.10 0.10 0.09 0.09 0.09 0.09 0.09 0.08 0.08 0.08 0.08 0.08 0.08 0.08 0.09 0.10 0.11 0.12 0.12 0.12 0.12 0.13 0.13 0.13 0.14 0.17 0.18 0.16 0.13
0.09 0.09 0.09 0.10 0.11 0.12 0.11 0.11 0.11 0.10 0.09 0.09 0.08 0.08 0.08 0.08 0.08 0.08 0.08 0.08 0.08 0.08 0.08 0.08 0.08 0.08 0.08 0.09 0.09 0.09 0.10 0.10 0.11 0.11 0.11 0.11 0.11 0.14 0.14 0.15 0.15 0.15 0.13
0.11 0.11 0.11 0.10 0.10 0.10 0.09 0.09 0.08 0.07 0.07 0.06 0.06 0.06 0.06 0.06 0.06 0.07 0.07 0.07 0.08 0.08 0.08 0.08 0.08 0.09 0.09 0.10 0.11 0.12 0.12 0.12 0.12 0.13 0.12 0.10 0.10 0.11 0.13 0.13 0.14 0.13 0.12
0.10 0.09 0.09 0.08 0.07 0.07 0.07 0.07 0.07 0.07 0.06 0.06 0.06 0.06 0.07 0.07 0.07 0.07 0.07 0.08 0.09 0.09 0.10 0.10 0.11 0.11 0.12 0.13 0.13 0.14 0.15 0.16 0.16 0.15 0.14 0.13 0.13 0.12 0.12 0.13 0.13 0.13 0.12
Wind_Speed
20 19 19 20 20 20 19 19 19 19 20 20 19 18 16 15 14 12 12 11 11 12 12 12 11 11 12 12 13 14 14 14 14 14 14 13 13 14 14 14 13 15 16
22 20 20 20 19 19 19 18 18 19 19 20 20 19 18 16 15 14 13 13 13 13 13 13 13 14 14 14 14 14 15 15 15 15 16 16 16 15 15 15 15 15 16
23 21 20 20 20 19 18 18 18 18 18 19 20 20 19 18 17 16 15 14 14 14 14 14 15 15 16 17 17 17 17 18 18 17 17 18 18 19 18 18 18 18 18
24 22 21 20 20 19 19 18 18 18 18 18 19 19 19 19 18 17 16 16 15 15 15 16 16 17 18 18 19 19 19 20 20 20 20 20 21 21 22 21 22 22 22
26 24 22 21 20 20 19 19 18 18 18 18 18 19 18 18 18 18 17 17 17 17 17 17 18 18 18 18 19 19 19 20 21 21 22 23 23 23 25 26 25 26 25
27 25 23 22 21 21 20 19 19 18 18 18 18 18 18 19 19 19 19 19 18 18 18 18 18 18 18 18 19 19 19 20 20 21 21 22 23 24 25 26 28 29 28
28 26 25 23 22 21 21 20 20 19 19 19 19 19 19 19 19 19 19 19 18 18 18 18 19 19 19 20 20 21 21 22 22 23 24 25 25 27 28 29 29 30 30
27 26 25 23 22 21 21 20 20 20 20 19 19 19 19 19 19 19 19 19 20 20 20 21 21 21 22 22 23 23 24 25 25 26 27 28 29 30 31 32 33 34 33
27 25 25 23 23 22 21 21 20 20 20 20 20 20 19 20 20 20 20 21 21 22 22 23 23 24 25 25 26 26 27 28 29 30 30 31 32 33 34 35 36 37 37
25 25 25 24 23 22 22 21 21 21 21 21 21 21 20 21 21 21 22 22 23 24 25 25 26 27 27 28 29 30 30 31 32 33 34 35 36 37 38 39 40 41 42
25 24 24 23 22 22 22 22 21 21 21 21 21 22 22 22 22 23 24 24 25 26 27 28 29 30 31 32 32 33 34 35 36 37 38 39 40 41 42 43 44 45 46
25 24 24 23 23 23 22 22 22 22 22 22 22 23 23 24 24 25 26 27 27 28 29 30 31 33 34 35 36 37 37 38 39 40 41 42 43 44 45 46 47 48 49
24 24 24 24 23 23 23 23 22 22 23 23 24 24 25 25 26 27 28 29 29 30 32 33 34 35 36 37 38 39 40 41 41 42 44 45 46 46 47 48 49 50 51
23 23 23 23 23 23 23 22 22 23 23 23 24 25 26 27 28 29 30 31 32 33 34 35 36 37 39 40 41 42 43 44 45 45 46 47 48 49 50 50 51 52 53
23 23 23 23 23 22 22 22 23 23 24 25 26 27 27 28 29 31 32 33 34 35 36 38 39 40 41 42 44 45 46 47 48 49 50 50 51 52 52 52 53 54 55
24 23 22 22 22 22 23 23 23 24 24 25 26 27 29 30 31 32 34 35 37 38 39 41 42 43 44 46 47 48 49 50 50 51 52 53 53 54 54 55 56 56 56
24 23 22 22 22 22 21 22 23 24 25 27 28 29 31 32 34 35 37 39 40 41 43 44 45 46 48 49 50 51 52 53 53 54 55 55 55 56 56 56 57 57 58
24 23 23 22 21 21 22 23 24 26 27 28 30 32 34 35 36 38 40 41 43 44 46 47 48 49 51 52 53 54 55 55 56 57 57 57 57 57 58 58 58 59 59
23 22 22 21 21 22 23 24 26 27 29 31 32 34 35 37 39 41 43 44 46 48 49 50 51 52 53 54 55 56 57 57 58 58 59 59 59 58 59 59 59 59 60
21 20 20 21 22 23 24 25 27 29 30 32 34 36 38 40 42 44 46 48 49 51 52 53 55 56 57 57 58 58 59 59 59 59 59 59 60 60 59 59 59 60 59
18 18 19 20 21 22 24 26 28 30 32 34 36 38 41 43 45 47 49 50 52 54 55 56 57 58 59 59 60 60 60 61 61 60 59 59 59 59 59 59 58 58 57
17 17 18 19 20 22 25 27 30 32 34 37 39 41 43 45 48 50 51 53 54 56 57 58 59 59 60 60 61 61 61 61 61 61 60 59 59 58 57 56 56 55 53
15 16 17 19 21 23 26 29 31 34 37 39 41 44 46 48 50 52 53 55 56 57 58 59 60 60 59 60 60 60 60 60 59 59 59 58 57 56 55 54 52 52 52
14 16 17 19 22 25 28 31 34 36 38 41 43 45 48 49 51 52 54 55 57 58 58 59 59 59 58 57 57 57 56 56 56 56 56 56 55 53 52 51 50 49 49
14 16 18 21 24 27 30 33 35 38 40 43 45 46 48 50 51 53 54 55 56 57 58 58 58 58 58 57 56 55 54 53 52 52 50 49 48 49 49 49 48 47 48
14 16 19 22 25 28 31 34 37 39 41 43 45 46 48 49 50 51 52 52 54 54 55 56 56 56 57 57 55 55 54 54 53 51 50 50 49 49 48 47 45 45 46
Wind_Direction
232 236 237 234 235 237 239 241 239 236 231 228 228 228 229 229 230 233 236 241 245 249 250 251 254 256 256 258 261 259 262 265 269 266 267 259 256 260 262 265 259 260 262
232 236 237 236 236 236 238 238 236 233 230 228 228 227 228 230 233 236 241 246 249 252 254 256 258 260 259 263 265 265 263 265 270 268 265 262 258 264 260 259 263 264 264
230 233 235 235 235 236 236 235 233 231 229 227 226 227 229 232 236 240 244 249 252 255 258 260 261 262 264 265 267 268 269 267 267 269 266 263 262 268 258 261 264 267 270
231 232 233 233 233 233 233 232 231 229 228 227 227 228 231 234 238 241 245 249 255 257 260 262 265 266 267 268 269 270 269 269 269 265 267 265 265 264 264 262 267 268 271
230 231 232 231 231 231 231 231 230 229 228 227 228 229 230 234 238 242 246 252 256 260 263 266 268 269 269 270 271 271 271 270 269 269 268 266 266 267 266 267 267 270 270
229 229 229 229 230 230 230 230 229 229 229 228 229 231 233 237 241 246 250 254 258 262 265 267 268 269 270 271 271 271 272 271 271 270 270 270 268 269 269 268 271 272 271
225 226 227 227 228 229 229 229 229 230 231 231 232 235 237 240 244 247 251 253 257 260 265 267 269 270 271 272 272 272 273 273 273 273 272 272 272 272 272 272 272 272 273
222 223 224 225 226 227 228 229 230 230 232 233 235 237 239 242 245 249 251 255 258 262 266 268 270 271 272 273 273 274 274 274 274 275 274 273 274 274 274 274 274 274 271
218 219 220 223 225 226 227 228 229 230 232 234 237 239 242 245 248 251 255 258 261 264 267 269 271 272 274 274 274 275 275 276 276 276 276 275 276 276 275 275 275 274 273
215 217 220 222 224 225 226 228 230 232 235 237 240 242 245 248 252 255 258 261 264 267 269 271 272 274 275 275 275 275 277 277 277 277 277 277 277 277 277 276 276 275 274
214 216 218 220 222 226 228 230 232 234 237 240 242 245 249 253 256 259 262 264 267 269 271 273 274 275 276 276 277 277 278 278 278 278 278 278 278 277 277 277 277 276 276
215 217 219 222 225 228 230 232 235 237 240 243 246 250 254 257 260 262 265 268 269 271 273 275 276 277 277 278 278 278 278 279 279 279 279 279 279 278 278 278 277 277 276
215 218 221 224 227 229 232 235 237 240 244 248 251 255 258 260 263 266 268 270 272 273 275 276 277 278 279 279 279 279 279 279 279 280 280 280 280 279 279 279 278 277 277
215 217 221 225 228 231 234 236 240 244 248 252 255 258 261 264 266 268 270 272 274 276 277 278 279 279 280 279 279 280 280 280 280 280 280 280 280 280 280 279 279 278 278
220 223 225 227 229 231 234 239 243 248 252 256 260 262 265 267 269 271 273 275 276 277 278 279 280 280 281 280 280 280 281 281 280 280 281 280 280 280 279 279 279 279 279
219 222 226 227 229 234 238 243 249 253 257 260 263 266 268 270 272 274 275 276 278 279 280 281 281 281 281 281 281 281 281 281 281 281 281 281 280 280 279 279 279 278 278
220 224 226 229 234 238 242 246 253 258 262 265 268 270 272 274 275 276 277 278 279 280 281 282 282 282 282 282 282 282 282 282 281 281 281 281 280 280 280 279 279 278 278
222 225 228 232 236 241 248 254 259 264 267 269 272 274 275 277 278 278 279 280 281 281 282 282 283 283 283 283 283 283 282 282 282 282 281 281 280 280 280 279 279 279 278
220 223 228 234 240 248 255 260 265 268 271 274 275 277 278 279 280 281 281 282 282 283 283 283 283 283 284 284 283 283 283 282 282 282 281 280 280 280 279 279 279 279 279
216 223 232 241 249 255 260 264 269 272 275 277 279 280 281 281 282 283 283 283 283 284 284 284 284 284 284 284 283 283 283 282 282 281 281 280 280 279 279 278 278 278 278
221 229 238 247 254 260 265 269 273 277 279 281 282 283 283 284 284 285 285 285 285 285 285 285 284 284 284 283 283 282 282 282 282 281 280 280 279 279 278 278 277 277 277
228 237 245 255 261 267 271 276 279 282 283 285 286 286 286 287 287 287 287 286 286 286 286 285 285 285 284 284 283 282 281 281 280 280 280 279 278 278 277 277 276 277 275
234 245 256 264 270 274 278 282 284 286 287 288 288 289 289 289 289 288 288 288 287 287 286 286 286 286 285 284 283 283 282 281 280 279 279 278 278 277 276 276 274 275 276
247 258 266 273 279 283 285 287 289 290 290 291 291 291 291 291 291 290 289 289 289 288 287 287 286 285 285 284 284 283 282 281 280 280 279 278 276 274 274 275 275 274 274
261 271 278 283 287 290 291 292 293 294 294 294 295 294 294 293 293 292 291 290 289 288 288 287 286 285 284 284 283 282 281 280 280 279 279 277 274 275 275 274 274 273 275
275 282 287 291 293 295 296 297 298 298 298 298 297 297 297 296 295 295 294 293 292 291 290 288 287 286 285 284 283 282 281 280 279 277 276 276 274 274 274 273 272 273 275